This is the latest recevied weather packets stored in our database for station/object KB2M. If no packets are shown the sender has not sent any weather packets the latest 10 day(s).
| Time | Temp. | Humidity | Pressure | Rain* | Wind** | Luminosity | Snow |
|---|---|---|---|---|---|---|---|
| 1777982009 | 20° C | 82% | 1017.9 hPa | 0 mm | - | - | - |
| 1777981409 | 19.44° C | 86% | 1017.9 hPa | 0 mm | - | - | - |
| 1777980808 | 17.78° C | 88% | 1017.9 hPa | 0 mm | - | - | - |
| 1777980208 | 17.78° C | 88% | 1017.6 hPa | 0 mm | - | - | - |
| 1777979607 | 17.78° C | 89% | 1017.6 hPa | 0 mm | - | - | - |
| 1777979007 | 17.22° C | 89% | 1017.6 hPa | 0 mm | - | - | - |
| 1777978406 | 17.22° C | 89% | 1017.6 hPa | 0 mm | - | - | - |
| 1777977805 | 16.67° C | 88% | 1017.6 hPa | 0 mm | - | - | - |
| 1777977175 | 17.22° C | 89% | 1017.6 hPa | 0 mm | - | - | - |
| 1777976575 | 17.22° C | 90% | 1017.2 hPa | 0 mm | - | - | - |
| 1777975973 | 17.22° C | 90% | 1017.2 hPa | 0 mm | - | - | - |
| 1777975373 | 17.22° C | 90% | 1017.2 hPa | 0 mm | - | - | - |
| 1777974772 | 17.78° C | 90% | 1017.2 hPa | 0 mm | - | - | - |
| 1777974171 | 17.78° C | 89% | 1016.9 hPa | 0 mm | - | - | - |
| 1777973571 | 17.78° C | 88% | 1016.9 hPa | 0 mm | - | - | - |
| 1777972970 | 17.78° C | 87% | 1016.9 hPa | 0 mm | - | - | - |
| 1777972369 | 17.78° C | 86% | 1016.9 hPa | 0 mm | - | - | - |
| 1777971769 | 17.78° C | 87% | 1016.9 hPa | 0 mm | - | - | - |
| 1777971168 | 17.78° C | 85% | 1016.9 hPa | 0 mm | - | - | - |
| 1777970568 | 17.78° C | 85% | 1016.9 hPa | 0 mm | - | - | - |
| 1777969967 | 17.78° C | 85% | 1016.9 hPa | 0 mm | - | - | - |
| 1777969367 | 18.33° C | 84% | 1016.9 hPa | 0 mm | - | - | - |
| 1777968766 | 18.33° C | 83% | 1016.5 hPa | 0 mm | - | - | - |
| 1777968165 | 18.33° C | 80% | 1016.9 hPa | 0 mm | - | - | - |
| 1777967565 | 18.33° C | 80% | 1016.5 hPa | 0 mm | - | - | - |
* Rain latest hour (hover to see other rain measurements)
** Current wind speed in m/s (hover to see current wind gust speed)